Location: Fisheating Creek Campgrounds
(26.9333°N, 81.3167°W)
Time: 22:06:44
(UTC-04:00)

Daily predictions for brighter satellites

Satellite Brightness Start Highest point End
(mag) Time Altitude Azimuth Time Altitude Azimuth Time Altitude Azimuth
H-2A R/B 2.2 19:40:12 10° WSW 19:43:07 67° SSE 19:55:44 10° ENE
USA 215 3.5 19:56:56 10° NE 20:03:14 51° SE 20:09:31 10° SSW
Cosmos 2278 Rocket 2.7 19:58:17 10° S 20:03:26 37° ESE 20:08:36 10° NE
Cosmos 2112 Rocket 4.0 19:58:52 10° N 20:04:06 65° ENE 20:09:15 10° SSE
GPS 2-05 Rocket1 3.7 20:02:05 10° SW 20:05:21 35° SSE 20:08:40 10° E
Cosmos 1953 Rocket 4.4 20:02:57 10° NNW 20:07:17 56° W 20:11:38 10° S
Cosmos 1934 Rocket 4.3 20:01:55 10° SSE 20:07:42 43° E 20:13:25 10° NNE
Cosmos 1898 Rocket 3.9 20:04:30 10° SSW 20:09:48 73° WNW 20:15:06 10° N
Cosmos 990 Rocket 4.0 20:05:46 10° S 20:10:55 61° ESE 20:16:05 10° NNE
Cosmos 1953 4.2 20:11:44 10° ESE 20:12:55 11° E 20:14:13 10° ENE
FENGYUN 3A 4.0 20:09:49 10° SE 20:14:55 43° ENE 20:19:59 10° N
Cosmos 1378 4.0 20:13:19 10° NNE 20:16:36 28° E 20:19:51 10° SE
H-2A R/B 3.8 20:15:50 10° SE 20:19:02 25° ENE 20:22:16 10° NNE
Meteor 1-24 Rocket 4.1 20:21:12 10° NNE 20:26:22 39° E 20:31:40 10° SSE
CZ-3C R/B 1.8 20:24:32 10° WSW 20:26:52 21° SSW 20:28:05 14° SSE
Cosmos 1821 Rocket 4.1 20:21:00 10° S 20:27:24 88° E 20:33:47 10° N
ATLAS 5 CENTAUR R/B 3.6 20:25:51 10° SE 20:26:35 12° SE 20:26:35 12° SE
Aurora 2 Rocket 4.0 20:23:34 10° SW 20:29:53 36° SSE 20:33:06 18° ESE
NOSS 3-4 (A) 4.1 20:23:22 10° NNW 20:30:37 79° WSW 20:38:16 10° SSE
NOSS 3-4 (C) 4.0 20:23:28 10° NNW 20:30:43 80° WSW 20:38:23 10° SSE
Cosmos 1707 2.7 20:27:28 10° N 20:31:22 90° NW 20:35:14 10° S
Meteor 2-5 Rocket 3.8 20:26:55 10° N 20:32:41 85° E 20:38:33 10° S
ALOS 2.2 20:29:05 10° SSE 20:33:43 74° ENE 20:38:23 10° N
HJ-1C 3.3 20:31:03 10° SSE 20:34:23 65° ENE 20:37:45 10° N
Geosat 4.1 20:31:23 10° NNE 20:36:25 84° WNW 20:41:26 10° SSW
Cosmos 1812 Rocket 3.7 20:32:28 10° S 20:36:54 77° W 20:41:19 10° N
Resurs 01 Rocket 1.8 20:33:12 10° SSE 20:37:24 47° ENE 20:41:38 10° N
Cosmos 1766 3.1 20:34:14 10° S 20:38:06 80° E 20:41:58 10° N
Cosmos 1544 3.8 20:35:48 10° SSE 20:39:00 31° E 20:42:15 10° NNE
BREEZE-M DEB (TANK) 2.1 20:42:25 10° SW 20:44:48 79° NW 20:50:30 10° NE
Cosmos 1605 Rocket 3.9 20:39:14 10° S 20:45:20 64° E 20:51:33 10° NNE
Timation 1 Rocket 4.4 20:39:39 10° S 20:45:25 52° ESE 20:51:14 10° NNE
Delta 168 2.9 20:42:22 10° WSW 20:45:44 39° S 20:46:26 33° SE
RESURS DK-1 3.7 20:43:13 10° NNE 20:46:08 21° ENE 20:46:08 21° ENE
COSMOS 2406 3.2 20:42:20 10° NNW 20:48:05 89° ENE 20:53:46 10° SSE
Lacrosse 5 3.2 20:44:13 10° WSW 20:48:58 40° NW 20:53:44 10° NNE
SL-27 R/B 3.5 20:47:50 10° N 20:50:29 29° NE 20:50:29 29° NE
SeaSat 1 2.6 20:49:16 10° SSE 20:54:10 75° WSW 20:59:05 10° NNW
Cosmos 2098 Rocket 4.3 20:50:04 10° SSE 20:56:22 53° E 21:03:34 10° NNE
Delta 128 3.4 20:54:33 10° WSW 20:59:01 79° S 21:00:28 43° E
Cosmos 2123 Rocket 3.9 21:00:07 10° N 21:06:27 81° E 21:12:42 10° S
CZ-2D R/B 3.1 21:06:58 41° SSE 21:08:14 87° ENE 21:12:06 10° N
IUS-7 SRM-1 3.2 21:07:11 10° WSW 21:08:32 35° SW 21:08:32 35° SW
Stardust Del rocket 4.3 21:07:53 10° WSW 21:09:33 22° SW 21:09:33 22° SW
Helios 1A 3.2 21:14:06 52° NE 21:14:06 52° NE 21:17:37 10° N
Cosmos 1867 3.4 21:08:09 10° SSW 21:13:34 77° ESE 21:19:01 10° NNE
Cosmos 1153 Rocket 4.4 21:08:12 10° S 21:14:33 76° E 21:20:57 10° N
Cosmos 1805 3.5 21:10:59 10° SSW 21:14:50 68° W 21:18:43 10° N
Yuri Rocket 2.8 21:15:05 10° W 21:19:13 76° N 21:19:20 75° NNE
Helios 1B rocket 2.9 21:15:17 10° N 21:19:22 62° WNW 21:23:24 10° SSW
Resurs 1-3 4.4 21:21:38 15° S 21:25:07 49° W 21:29:22 10° NNW
Cosmos 372 Rocket 3.7 21:25:10 10° SSW 21:30:15 84° ESE 21:35:23 10° NNE
SWIFT 4.1 21:32:26 10° WSW 21:34:55 24° SW 21:34:55 24° SW
Delta 2 Rocket 3.8 21:36:09 10° W 21:42:40 68° SSW 21:42:52 67° S
Cosmos 1459 Rocket 3.9 21:45:23 69° NE 21:45:23 69° NE 21:50:59 10° N
Cosmos 1447 Rocket 4.3 21:39:51 10° N 21:46:00 87° W 21:46:45 71° S
Cosmos 2173 Rocket 4.2 21:48:08 57° NNE 21:48:08 57° NNE 21:53:01 10° N
Cosmos 1953 4.1 21:46:48 19° SW 21:48:58 31° W 21:52:37 10° NNW
CZ-3 Stage 3 3.3 21:19:13 10° W 21:52:50 72° N 21:54:42 55° ENE
Envisat 3.8 21:54:30 45° NNW 21:54:30 45° NNW 21:57:58 10° NNW
Cosmos 1833 Rocket 4.4 21:50:40 10° N 21:52:40 21° NNE 21:52:40 21° NNE
ATLAS 5 CENTAUR R/B 4.3 22:07:51 10° SW 22:08:20 13° SW 22:08:20 13° SW
Cosmos 2082 Rocket 4.0 22:19:30 10° NNW 22:21:39 24° NNW 22:21:39 24° NNW
